Weather Roundup
Issued by NWS

Home | Current Version | Previous Version | Graphics & Text | Print | Product List | Glossary Off
Versions: 1 2 3 4 5 6 7 8 9 10 11 12 13 14 15 16 17 18 19 20 21 22 23 24 25 26 27 28 29 30 31 32 33 34 35 36 37 38 39 40 41 42 43 44 45 46 47 48 49 50

000
NZUS93 KARX 292159
HRRWXR

CURRENT HOURLY OBSERVATIONS ACROSS
MUCH OF THE UPPER MISSISSIPPI VALLEY
NATIONAL WEATHER SERVICE LA CROSSE WI
500 PM CDT WED JUL 29 2015


...SOUTHEAST MINNESOTA...


CITY           SKY/WX    TMP DP  RH WIND       PRES   REMARKS
ROCHESTER      SUNNY     78  55  44 W22G31    30.01S
ROCHESTER/MAYO FAIR      80  50  35 W25G37    29.98F
WINONA         SUNNY     81  52  36 W15G22    29.96S
AUSTIN         SUNNY     81  52  36 W21G28    30.02S
ALBERT LEA     SUNNY     81  54  39 W12G24    30.03S
DODGE CENTER   SUNNY     79  52  38 W24G33    30.01S
PRESTON        SUNNY     78  54  43 W17G29    30.02S
OWATONNA       SUNNY     81  52  36 W21G33    30.01S
FARIBAULT      SUNNY     81  55  41 W17G25    29.99F
$$

...ELSEWHERE IN MINNESOTA...


CITY           SKY/WX    TMP DP  RH WIND       PRES   REMARKS
MINNEAPOLIS    MOSUNNY   82  52  35 W23G37    29.93S
INTNL FALLS    CLOUDY    68  58  70 W9        29.71R
DULUTH         PTSUNNY   73  54  51 W14       29.80S
RED WING       SUNNY     84  52  32 W14G29    29.93S
REDWOOD FALLS  SUNNY     83  53  35 W18G29    30.00F
MANKATO        SUNNY     81  52  36 W21G33    30.00F
WORTHINGTON    SUNNY     81  54  39 W18       30.08S
FAIRMONT       SUNNY     82  54  36 W22       30.04S
$$

...SOUTHWEST WISCONSIN...


CITY           SKY/WX    TMP DP  RH WIND       PRES   REMARKS
LA CROSSE      SUNNY     84  54  35 W17G25    29.95R
PRAIRIE DU CHI SUNNY     84  46  26 W17G29    29.99F
BOSCOBEL       SUNNY     86  53  32 W12G22    29.98F
LONE ROCK      NOT AVBL
PLATTEVILLE    SUNNY     82  54  38 W13G25    30.02F
FORT MC COY    SUNNY     83  48  29 W15G25    29.95S
VIROQUA        FAIR      80  54  40 W8G22     30.00S
WIS DELLS      SUNNY     84  46  26 W14G29    29.95S
$$

...ELSEWHERE IN WISCONSIN...


CITY           SKY/WX    TMP DP  RH WIND       PRES   REMARKS
MILWAUKEE      MOSUNNY   86  49  27 W20G28    29.91F
MADISON        MOSUNNY   83  53  35 W9G21     29.94F
GREEN BAY      SUNNY     84  52  33 W18G31    29.84F
EAU CLAIRE     SUNNY     81  54  39 W21G33    29.90F
BLACK RVR FLS  FAIR      84  50  31 W16G23    29.93S
MEDFORD        MOSUNNY   76  54  45 W16G32    29.91R
WAUSAU         MOSUNNY   82  52  35 W21G32    29.87S
WIS RAPIDS     SUNNY     83  48  29 W23G31    29.92S
MARSHFIELD     SUNNY     81  51  35 W17G29    29.91S
RICE LAKE      PTSUNNY   76  54  46 W15G25    29.91S
$$

...NORTHEAST IOWA...


CITY           SKY/WX    TMP DP  RH WIND       PRES   REMARKS
DECORAH        SUNNY     81  52  36 NW14G23   30.01F
MASON CITY     SUNNY     82  59  45 W21       30.06F
CHARLES CITY   SUNNY     81  55  41 W18G25    30.05F
OELWEIN        SUNNY     81  57  44 W15G23    30.06S
$$

...ELSEWHERE IN IOWA...


CITY           SKY/WX    TMP DP  RH WIND       PRES   REMARKS
DES MOINES     MOSUNNY   85  54  34 W8        30.10F
IOWA CITY      SUNNY     84  58  40 W13       30.07F
FORT DODGE     SUNNY     81  57  44 W10G18    30.10F
$$

...NORTHERN ILLINOIS...


CITY           SKY/WX    TMP DP  RH WIND       PRES   REMARKS
CHICAGO-OHARE  MOSUNNY   85  52  32 W15       29.96S
CHICAGO-MIDWAY MOSUNNY   87  50  27 W9G23     29.96S
MOLINE         SUNNY     84  56  38 W15       30.04F
ROCKFORD       MOSUNNY   84  53  34 W14G23    30.00F
PEORIA         SUNNY     86  57  37 VRB5      30.05S
$$

NOTE: "FAIR" INDICATES FEW OR NO CLOUDS BELOW 12,000 FEET WITH NO
SIGNIFICANT WEATHER AND/OR OBSTRUCTIONS TO VISIBILITY. WIND
SPEEDS ARE IN MILES-PER-HOUR.



USA.gov is the U.S. government's official web portal to all federal, state and local government web resources and services.